sat.trackr.live / text

‹ back to catalog

HULIANWANG JISHU SHIYAN*

NORAD 58691 · 2023-212A

PAYLOAD ACTIVE UNKNOWN

§ Identity

Operator
Country
PRC
Launch date
2023-12-30
Launch site
JSC
Launch vehicle
Mass (kg)
RCS (m²)

External: N2YO · Heavens-Above · Gunter

§ Orbital elements

Epoch: 2026-05-25T03:10:13.122048Z

Period
107.35 min
Inclination
50.0009°
Eccentricity
0.0001057
Mean motion
13.41455812 rev/d
Perigee alt
1,103.1 km
Apogee alt
1,104.7 km
Semi-major
7,482.0 km
B*
3.2740e-5
RAAN
68.2018°
Arg perigee
34.0363°
Mean anomaly
326.0582°
Rev number
11,815

§ Raw data

HULIANWANG JISHU SHIYAN*1 58691U 23212A   26145.13209632 -.00000110  00000+0  32740-4 0  99952 58691  50.0009  68.2018 0001057  34.0363 326.0582 13.41455812118158

JSON: /api/v1/satellites/58691 · /tle

For live sub-satellite position, see the globe view (requires WebGL).

§ Visibility from observer

Set your observer location to see the next 7 days of passes ≥ 10°. The values pass through the URL so the page stays shareable.

No JS? Fill the form by hand. The geolocation button needs JavaScript.